GEFSNGP_con_cape1000_186.txt.gz
Probability
0 0 0 0 0 0 0 0 0 0 0 10 19 35 55 74 74 84 94 94 90 90 87 87 77 77 74 71 65 65 61 61 61 55 52 35 29 32 32 35 29 32 29 23
0 0 0 0 0 0 0 3 0 0 3 13 26 45 71 81 81 84 90 94 87 87 90 84 77 77 74 68 68 68 65 58 52 48 39 29 29 29 29 35 29 29 26 26
0 0 0 0 6 3 3 3 3 3 6 35 39 61 77 84 84 90 90 87 84 81 81 84 71 77 74 68 68 68 61 55 55 42 39 32 26 26 29 29 29 29 26 26
0 0 0 3 6 6 6 10 13 16 29 42 55 68 74 81 87 84 90 87 84 81 81 81 74 68 68 65 65 65 61 55 45 35 32 29 29 26 26 26 26 26 19 16
0 0 0 3 6 10 10 10 19 26 39 58 61 65 71 81 81 81 84 90 87 81 81 81 74 65 68 65 58 55 45 48 45 32 35 26 26 26 26 23 23 23 13 13
0 0 0 0 6 16 19 13 32 39 48 58 71 58 68 81 84 84 87 84 84 84 81 81 74 65 68 61 61 52 45 45 35 29 29 23 23 26 23 23 19 13 10 10
0 0 0 10 13 23 13 19 55 65 68 74 77 77 84 81 84 84 81 74 74 77 77 77 65 61 58 52 58 52 42 39 35 35 32 26 23 19 19 13 10 6 3 3
0 0 3 6 16 29 52 65 68 68 77 81 84 81 81 81 77 65 65 71 74 71 68 65 65 58 55 55 45 39 29 23 29 29 26 16 16 13 13 6 6 3 3 3
6 6 29 29 52 61 68 74 71 68 74 77 74 65 71 71 71 68 68 68 68 61 55 45 48 61 52 48 39 29 23 23 19 23 23 19 16 13 10 6 6 3 3 3
10 16 32 52 58 58 55 61 61 68 71 71 65 65 68 65 55 55 61 61 55 55 45 45 48 42 39 39 32 29 26 19 19 19 19 16 16 16 10 6 6 6 3 3
26 32 48 48 48 52 55 52 58 68 68 65 61 61 61 52 52 52 52 52 52 48 52 45 45 39 35 29 32 26 23 23 23 16 16 16 10 10 10 10 3 3 3 3
19 35 39 45 52 55 55 55 58 61 55 55 45 45 45 42 42 48 42 42 48 45 39 32 32 26 32 29 26 26 26 23 23 19 13 13 10 6 0 3 0 0 3 0
35 42 45 48 52 48 52 55 55 55 45 39 45 45 39 35 39 39 32 29 32 29 32 32 23 19 19 23 19 26 26 23 23 16 13 10 10 6 6 0 0 0 0 0
29 29 42 39 48 52 55 48 42 39 35 35 35 35 32 29 29 29 29 29 26 26 26 19 16 13 13 13 16 19 23 13 16 19 10 10 10 3 3 0 0 0 0 0
26 29 32 45 42 42 42 32 35 32 29 26 32 32 32 29 26 26 23 26 23 19 19 13 6 6 13 13 13 13 16 13 13 10 6 6 6 3 3 0 0 0 0 0
26 29 32 39 35 39 35 29 35 29 26 26 26 29 29 29 19 19 19 23 19 13 16 6 6 6 13 13 13 16 13 6 6 6 6 3 3 0 0 0 0 0 0 0
23 29 32 29 26 23 23 23 23 19 19 23 23 23 19 16 13 19 19 23 19 16 13 13 6 10 10 10 10 13 10 6 3 6 6 3 3 0 0 0 0 0 0 0
13 23 16 16 16 13 23 23 19 16 19 19 19 16 16 16 13 19 16 16 13 6 6 6 6 3 6 6 13 10 10 6 6 6 6 6 3 0 0 0 0 0 0 0
6 13 13 13 13 13 16 16 16 13 10 13 6 13 13 13 10 6 10 10 10 6 3 3 0 3 3 3 0 10 6 6 6 6 6 0 0 0 0 0 0 0 0 0
10 10 10 10 13 13 10 13 13 13 13 6 3 6 3 6 6 3 3 10 10 10 6 3 0 0 3 3 0 3 6 6 3 0 0 0 0 0 0 0 0 0 0 0
6 6 10 13 13 13 10 10 10 13 10 6 13 10 3 3 3 3 3 6 3 3 3 0 0 0 0 0 0 3 6 6 6 3 0 0 0 0 0 0 0 0 0 0
10 10 10 10 16 16 10 13 13 10 13 10 3 3 6 6 0 0 6 3 0 0 0 0 0 0 0 0 3 3 6 6 6 6 0 3 0 0 0 0 0 0 0 0
16 13 13 19 19 13 10 10 10 10 10 0 0 0 0 0 0 0 3 3 0 0 0 3 0 0 0 0 0 3 3 3 0 0 0 0 0 0 0 0 0 0 0 0
13 13 16 19 16 16 13 6 6 6 6 0 0 0 0 3 0 0 0 0 0 0 0 0 0 0 0 0 0 0 3 3 3 0 3 3 0 0 0 0 0 0 0 0
16 16 16 16 16 6 6 3 3 3 0 0 0 0 0 0 0 0 0 0 0 0 0 0 0 0 0 0 0 0 0 0 3 3 3 3 0 0 0 0 0 0 0 0
6 10 10 6 6 10 0 3 3 6 6 0 0 0 0 0 0 0 3 0 0 0 0 0 0 0 0 0 0 0 0 0 3 3 3 3 0 0 0 0 0 0 0 0
0 0 3 6 6 3 0 3 6 3 6 3 0 0 0 0 0 0 0 0 3 0 0 0 0 0 0 0 0 0 0 0 0 3 3 3 3 3 0 0 0 0 0 0

GEFSNGP_con_cape1000_192.txt.gz
Probability
0 0 0 0 0 0 0 0 0 0 6 6 16 39 58 65 71 81 94 97 94 97 97 87 77 81 81 81 77 74 71 71 71 71 68 58 48 48 48 45 42 42 39 35
0 0 0 0 0 0 0 0 0 6 6 6 26 48 61 65 74 84 94 97 94 97 97 87 87 84 81 81 81 81 74 71 71 71 65 45 45 45 45 45 39 39 35 35
0 0 0 0 0 0 0 0 0 10 19 16 39 61 71 84 81 84 87 97 97 97 97 97 87 87 84 74 74 74 71 68 68 61 48 48 42 39 35 35 35 39 32 26
0 0 0 0 0 0 0 3 10 13 13 26 45 61 71 77 84 87 87 90 94 94 94 94 84 84 77 71 71 71 68 65 65 58 45 42 42 35 39 32 32 29 26 26
0 0 0 0 0 0 0 3 6 16 16 39 48 48 71 81 87 90 90 87 84 84 87 90 84 81 74 71 71 71 68 61 52 48 39 35 35 35 32 32 32 26 26 23
0 0 0 3 0 0 0 10 10 16 35 39 39 45 71 90 90 90 87 87 84 81 84 84 84 74 74 71 71 68 65 61 55 48 35 32 32 29 29 29 26 23 19 19
0 0 0 3 3 3 0 32 29 35 48 61 77 84 87 87 87 81 84 84 81 81 81 84 81 77 71 71 65 68 65 55 48 42 32 29 32 32 26 26 23 19 16 16
3 0 3 23 10 23 68 71 45 48 61 71 77 87 87 84 81 81 84 84 81 81 74 77 81 77 74 68 68 65 55 42 42 29 29 29 29 26 26 26 23 19 13 16
23 26 68 52 65 71 68 71 68 65 68 77 84 87 84 81 81 84 84 81 77 74 74 74 74 74 68 65 58 55 42 32 32 29 29 29 26 26 26 26 23 16 16 13
61 48 48 48 55 61 58 61 58 58 61 68 74 77 77 81 81 81 77 74 74 68 61 55 58 65 65 65 61 48 35 29 23 26 26 26 26 26 26 23 19 19 16 16
55 61 48 55 58 61 61 55 52 52 58 65 71 77 77 74 68 65 68 65 65 61 55 55 61 48 48 42 48 45 26 23 19 19 23 26 23 19 19 19 19 16 16 16
39 52 45 52 52 55 55 58 61 61 65 65 68 68 68 65 61 58 58 65 61 58 48 52 52 52 45 45 45 39 29 26 19 19 23 23 16 13 6 6 3 3 3 3
48 42 39 48 48 48 52 55 61 65 65 65 65 65 55 52 52 48 52 55 55 52 45 42 39 35 42 45 39 32 19 16 16 16 16 19 13 13 13 6 0 0 3 3
39 45 39 42 42 48 52 55 58 58 61 61 61 55 45 45 45 45 45 39 39 39 32 32 29 32 39 35 35 29 23 13 16 19 13 13 10 10 6 6 10 3 0 0
35 35 39 42 35 42 48 52 58 55 55 55 55 52 48 42 42 39 35 32 32 32 26 23 23 29 32 26 29 23 16 13 19 13 13 13 13 6 6 6 6 3 6 0
32 29 29 29 29 32 32 42 55 45 45 42 45 42 39 39 35 35 35 32 42 26 32 26 29 23 19 19 19 16 19 10 10 13 10 13 10 6 6 6 6 3 3 0
32 32 32 23 23 19 29 42 48 45 35 35 29 32 35 32 32 35 29 29 32 32 35 39 32 19 19 19 16 10 6 6 10 10 10 6 3 3 6 6 6 3 3 3
26 26 26 26 26 29 29 39 32 32 32 29 26 26 23 26 29 35 32 35 35 39 39 29 23 16 16 23 23 6 6 6 6 10 10 6 3 3 6 6 6 6 3 3
16 16 16 23 26 29 32 29 32 32 29 23 23 19 19 23 23 32 29 26 26 29 29 26 0 10 16 13 0 10 6 6 6 6 6 3 3 3 6 6 6 6 3 0
16 13 13 13 16 19 19 29 35 29 29 26 19 19 23 23 29 29 32 35 26 26 32 19 6 10 6 3 0 0 0 3 3 6 6 6 3 3 3 3 6 3 0 0
13 13 13 16 13 16 16 23 23 19 16 19 19 26 26 32 29 29 32 19 29 29 23 0 6 6 3 3 0 0 0 0 3 3 3 6 6 3 3 3 0 0 0 0
13 13 10 10 10 10 13 23 19 19 23 13 16 19 26 35 26 23 35 29 16 6 13 6 10 6 3 0 0 0 0 0 3 3 3 3 6 6 6 3 3 3 0 0
19 19 13 13 10 16 19 23 23 23 23 26 23 26 26 42 13 16 13 16 13 0 3 6 3 0 0 0 0 0 0 0 0 3 3 3 3 3 3 0 3 0 3 0
23 23 26 23 16 19 19 19 26 29 23 26 26 29 29 29 23 10 3 0 0 0 0 0 0 0 0 0 0 0 0 0 0 3 3 3 3 3 3 0 0 0 0 0
23 26 16 13 16 16 19 26 23 23 16 19 19 19 23 23 16 6 0 0 0 0 0 0 0 0 0 0 0 0 0 0 0 0 0 3 3 3 3 0 0 0 0 0
16 23 19 19 16 23 16 16 19 26 16 19 16 10 13 13 0 0 6 0 0 0 0 0 0 0 0 0 0 0 0 0 0 0 0 0 0 3 3 0 0 0 0 0
13 23 26 6 10 6 3 3 6 13 16 10 10 6 0 0 0 0 0 0 0 0 0 0 0 0 0 0 0 0 0 0 0 0 0 0 0 0 3 3 0 0 0 0

GEFSNGP_con_cape1000_198.txt.gz
Probability
0 0 0 0 0 0 0 0 0 3 3 6 16 16 35 39 48 55 58 58 58 45 45 52 61 65 61 61 58 58 61 48 48 32 32 29 29 26 19 19 19 19 23 19
0 0 0 0 0 0 3 0 3 6 10 10 10 23 39 45 58 61 65 58 55 55 52 52 61 65 68 58 58 58 55 48 45 29 26 23 23 23 23 19 19 19 19 10
0 0 0 0 0 3 6 6 13 16 19 16 19 29 39 55 61 68 65 52 61 55 48 58 58 58 65 58 58 58 52 52 35 26 23 26 26 23 23 19 19 13 10 10
0 0 0 3 3 6 6 10 13 16 23 16 19 42 55 55 58 68 65 58 68 58 45 48 48 48 48 48 52 55 52 45 29 26 26 26 26 26 23 16 16 13 10 10
0 0 0 0 3 6 10 13 19 23 19 32 45 55 58 58 58 61 58 58 58 58 48 52 45 48 45 45 48 52 42 35 26 29 26 26 23 23 19 16 16 16 10 10
0 0 0 0 6 13 10 16 23 29 29 52 58 48 58 74 71 68 61 58 58 58 55 52 48 42 42 35 35 39 35 35 29 23 19 23 19 19 16 19 13 13 10 10
0 0 0 3 16 16 6 23 23 35 35 55 48 42 58 68 68 65 71 68 68 71 55 52 45 39 39 35 29 26 26 26 23 26 16 16 13 19 19 13 13 13 10 10
0 0 0 6 32 29 19 23 35 42 45 58 61 68 58 61 68 65 65 61 61 58 48 45 35 39 39 29 26 19 23 23 19 23 23 19 13 13 13 13 13 10 10 10
0 3 10 23 32 35 35 45 42 52 55 68 65 58 55 55 61 68 58 58 45 42 42 42 39 35 26 26 23 13 19 16 10 16 19 16 19 13 13 13 13 10 10 10
6 16 19 26 26 42 45 48 48 52 55 65 65 61 58 61 61 58 58 48 42 39 39 35 32 29 26 26 19 19 16 10 6 13 13 13 13 13 13 13 13 10 10 10
6 13 19 23 19 29 32 45 48 55 58 48 48 48 48 45 48 48 42 45 39 32 35 29 23 16 16 16 13 16 13 10 10 13 13 13 10 10 13 13 16 16 13 10
10 10 16 16 16 26 35 42 42 58 52 48 52 48 42 35 35 35 35 35 32 32 26 26 23 16 16 13 6 10 10 6 6 6 10 10 10 6 6 3 3 3 6 6
3 10 13 19 23 35 42 45 42 45 45 35 32 35 35 29 29 29 32 32 32 29 26 23 19 16 10 10 13 10 6 3 3 6 6 10 6 6 3 3 0 0 0 3
10 16 19 26 29 32 32 35 35 35 39 35 35 35 32 26 23 29 23 23 26 26 19 19 19 16 6 10 13 10 3 3 3 3 6 6 6 6 6 3 3 3 0 0
6 6 16 26 29 26 26 29 32 29 32 32 32 32 29 26 19 16 16 16 19 19 16 16 16 13 10 10 10 10 3 3 3 3 3 3 3 6 3 3 3 3 0 0
6 10 16 23 26 23 26 29 29 26 26 26 26 23 26 19 13 13 13 13 13 19 19 16 16 16 16 10 10 10 3 3 3 3 0 3 3 6 3 3 3 3 3 0
6 6 10 13 19 23 23 26 26 26 26 19 19 19 19 19 13 13 13 13 13 13 16 16 16 16 13 10 10 10 3 3 0 0 0 3 6 6 3 3 3 3 3 0
6 10 10 10 10 10 13 23 26 23 26 16 16 19 19 23 23 16 16 10 10 10 6 10 13 13 6 6 6 6 3 3 0 0 0 0 3 6 3 3 3 3 3 0
6 6 6 6 10 16 16 19 19 23 19 16 16 16 19 19 19 16 13 13 13 13 6 6 6 10 3 3 3 3 3 3 3 0 0 0 6 3 3 3 0 0 0 0
10 10 13 10 10 13 13 13 16 13 13 13 16 19 19 19 13 13 10 10 6 6 0 0 6 6 0 0 0 0 0 0 0 0 0 0 0 3 3 3 0 0 0 0
6 10 6 6 10 10 10 13 10 10 13 16 19 19 16 16 13 13 10 10 6 0 0 0 0 0 0 0 0 0 0 0 0 0 0 0 0 3 3 3 0 0 0 0
6 3 6 3 6 6 10 10 10 10 10 13 13 13 10 13 10 10 6 3 0 0 0 0 0 0 0 0 0 0 0 0 0 0 0 0 0 0 3 3 0 0 0 0
3 3 3 3 3 6 6 6 6 6 6 3 3 10 10 10 6 6 3 0 0 0 0 0 0 0 0 0 0 0 0 0 0 0 0 0 0 0 0 0 0 0 0 0
6 6 0 3 3 3 3 3 6 3 6 6 6 10 10 0 0 0 0 0 0 0 0 0 0 0 0 0 0 0 0 0 0 0 0 0 0 0 0 0 0 0 0 0
0 3 3 3 3 3 3 3 3 6 6 10 6 6 0 0 0 0 0 0 0 0 0 0 0 0 0 0 0 0 0 0 0 0 0 0 0 0 0 0 0 0 0 0
0 0 0 0 0 0 0 0 3 3 6 6 3 0 0 0 0 0 0 0 0 0 0 0 0 0 0 0 0 0 0 0 0 0 0 0 0 0 0 0 0 0 0 0
0 0 0 0 0 0 3 3 3 3 0 3 0 0 0 0 0 0 0 0 0 0 0 0 0 0 0 0 0 0 0 0 0 0 0 0 0 0 0 0 0 0 0 0

GEFSNGP_con_cape1000_204.txt.gz
Probability
0 0 0 0 0 0 0 0 0 3 3 3 10 10 16 23 26 39 48 42 35 26 35 42 39 45 35 32 42 48 42 35 35 32 29 23 26 19 19 19 16 19 19 19
0 0 0 3 6 6 6 6 6 6 6 10 13 13 19 26 32 45 45 45 32 32 35 35 32 35 42 39 39 39 32 29 29 19 19 19 19 19 19 19 16 13 13 16
0 0 0 3 3 6 6 10 6 6 6 10 19 16 16 29 35 42 45 45 39 39 32 35 32 42 48 45 42 35 32 26 19 16 23 16 16 16 16 16 13 13 10 10
0 0 0 0 3 6 10 10 13 13 19 19 23 13 16 23 32 45 52 48 48 45 39 39 35 39 35 35 42 39 32 29 16 13 13 19 16 16 13 13 13 13 10 6
0 0 3 3 0 3 10 10 23 23 26 23 26 23 26 26 39 48 58 48 52 45 32 39 39 29 39 35 35 39 35 32 26 13 13 13 19 13 13 16 13 10 10 6
0 0 0 0 0 3 0 3 10 23 23 23 26 19 16 23 42 39 35 42 42 42 32 32 29 35 42 42 32 29 29 32 19 13 13 13 16 13 13 13 13 10 10 6
0 0 0 0 3 3 0 0 6 23 19 26 19 10 16 35 39 39 39 39 42 42 35 32 26 26 32 29 23 23 26 23 16 16 16 13 10 13 13 13 10 10 6 6
0 0 0 0 10 0 0 3 19 26 26 19 13 26 32 39 42 48 55 45 42 48 35 29 26 26 26 23 19 23 19 13 13 6 10 6 3 3 3 6 6 6 6 6
0 0 0 0 6 6 3 13 23 19 16 23 29 32 42 42 35 52 52 52 45 39 32 26 26 26 26 19 16 16 6 10 6 6 6 6 3 6 3 3 0 3 3 3
3 6 6 6 6 13 16 19 23 26 23 29 29 35 39 39 39 42 42 45 35 29 29 29 19 19 19 16 13 13 6 6 0 0 0 3 0 0 0 0 0 0 3 3
3 3 6 6 6 10 26 32 35 39 32 26 45 48 39 42 32 32 35 39 39 29 26 19 19 19 16 13 13 6 3 3 0 0 0 0 0 0 0 0 0 0 0 0
3 0 0 3 10 19 26 29 35 42 42 39 42 45 32 23 29 23 19 23 26 19 16 16 13 10 10 13 13 6 6 3 0 0 0 0 0 0 0 0 0 0 0 0
0 0 0 3 13 23 26 32 42 39 35 35 35 26 29 19 16 19 19 23 26 19 16 16 13 6 6 10 6 6 6 6 6 3 0 0 0 0 0 0 0 0 0 0
3 3 3 13 23 26 19 26 32 29 26 19 23 19 19 16 13 16 10 13 16 10 13 13 13 6 6 6 6 6 6 6 6 3 3 0 0 0 0 0 3 0 0 0
3 6 6 13 23 23 19 23 26 23 19 16 16 19 19 13 13 6 13 13 13 13 13 13 13 6 6 3 6 6 6 6 6 3 3 0 0 0 0 0 0 0 0 0
10 10 13 13 10 16 16 23 23 23 23 16 16 23 16 10 3 3 3 6 10 13 13 13 10 6 3 6 6 6 6 6 6 3 3 0 0 0 0 0 0 0 0 0
6 10 6 6 6 10 16 19 19 19 23 23 13 13 13 10 6 6 6 6 6 3 3 6 10 3 3 3 3 6 6 6 3 3 3 0 0 0 0 0 0 0 0 0
6 6 3 6 6 6 10 10 16 13 19 19 13 10 6 6 6 6 6 6 3 3 3 3 3 0 3 3 3 3 6 6 3 3 3 0 0 0 0 0 0 0 0 0
0 0 3 10 6 6 6 6 13 13 16 19 13 13 6 6 6 6 6 6 6 3 0 0 0 0 0 0 0 0 3 6 6 3 3 0 0 0 0 0 0 0 0 0
0 3 6 6 6 6 6 6 10 13 16 16 13 10 6 6 6 6 6 6 6 0 0 0 0 0 0 0 0 0 0 0 0 0 3 0 0 0 0 0 0 0 0 0
0 0 3 3 3 6 6 6 10 16 16 13 13 13 10 3 3 6 3 3 0 0 0 0 3 3 3 0 0 3 0 0 0 0 0 0 0 0 0 0 0 0 0 0
0 0 0 0 0 0 3 3 3 10 6 6 6 10 10 3 3 0 0 0 0 0 0 0 0 0 0 0 3 0 0 0 0 0 0 0 0 0 0 0 0 0 0 0
0 0 0 0 0 0 0 0 0 0 6 6 6 6 6 3 3 0 0 0 0 0 0 0 0 0 0 0 0 0 0 0 0 0 0 0 0 0 0 0 0 0 0 0
0 0 0 0 0 0 0 0 0 0 3 3 3 6 3 0 0 0 0 0 0 0 0 0 0 0 0 0 0 0 0 0 0 0 0 0 0 0 0 0 0 0 0 0
0 0 0 0 0 0 0 0 0 0 0 3 3 3 3 3 0 0 0 0 0 0 0 0 0 0 0 0 0 0 0 0 0 0 0 0 0 0 0 0 0 0 0 0
0 0 0 0 0 0 0 0 0 0 0 3 3 3 0 0 0 0 0 0 0 0 0 0 0 0 0 0 0 0 0 0 0 0 0 0 0 0 0 0 0 0 0 0
0 0 0 0 0 0 0 0 0 0 3 3 3 0 0 0 0 0 0 0 0 0 0 0 0 0 0 0 0 0 0 0 0 0 0 0 0 0 0 0 0 0 0 0

GEFSNGP_con_cape1000_210.txt.gz
Probability
0 0 0 0 0 0 0 0 0 0 10 29 32 42 45 52 71 81 84 84 84 84 87 84 77 77 74 71 77 74 71 65 68 65 61 55 48 48 48 42 39 32 32 32
0 0 0 0 3 0 0 0 0 10 19 26 39 42 48 58 68 87 84 84 90 90 87 87 81 74 71 68 71 71 68 68 65 58 55 48 48 45 45 39 39 35 32 32
0 0 0 0 3 3 6 13 10 13 19 32 39 48 55 68 71 77 94 90 90 84 81 81 74 71 74 68 68 71 68 65 58 58 45 42 39 42 42 42 42 35 32 32
0 0 0 3 10 10 13 16 16 19 26 29 42 52 48 65 74 71 77 84 87 84 84 81 74 77 71 65 65 61 58 55 52 48 45 39 39 32 32 42 42 35 29 29
0 0 0 6 13 13 16 19 19 29 32 39 42 45 42 58 58 68 77 81 84 81 81 81 77 71 68 61 61 61 55 52 52 42 42 39 39 32 32 32 32 29 23 19
0 0 0 6 13 19 19 16 23 29 39 42 42 32 42 65 71 68 71 81 81 81 81 81 71 68 65 65 61 55 55 48 48 45 42 35 35 32 32 32 32 19 19 23
0 0 3 13 10 13 13 23 35 35 42 48 52 52 52 65 74 77 71 77 81 81 77 77 74 68 68 61 61 55 52 45 45 39 35 35 32 35 29 26 26 19 16 16
0 0 3 10 13 23 32 35 35 39 39 55 52 55 55 65 74 77 65 71 77 81 77 71 68 71 71 68 58 55 42 42 39 39 35 23 23 19 23 23 23 19 19 16
3 10 19 23 26 29 29 32 42 45 45 48 58 58 55 68 77 65 65 71 74 74 74 68 68 68 61 61 55 52 42 42 39 35 35 19 19 16 16 16 19 16 16 6
16 13 19 19 23 23 23 29 42 42 39 45 48 55 58 65 68 68 71 61 74 68 68 61 65 61 65 61 55 48 45 45 32 29 19 16 16 16 16 13 6 6 13 10
19 19 19 19 19 23 29 29 35 35 39 42 48 52 55 65 65 58 65 65 68 61 55 52 48 48 55 48 48 45 39 35 26 26 23 23 16 16 13 13 6 6 6 6
10 16 16 19 19 16 26 29 35 35 39 42 48 45 55 52 55 55 58 58 55 52 52 45 48 42 48 48 45 42 39 29 26 23 26 16 10 3 0 0 0 0 3 3
13 16 16 16 13 10 19 29 32 35 39 42 42 45 55 52 52 48 48 52 48 52 48 35 39 42 35 35 39 32 32 26 19 19 23 16 10 3 0 0 0 0 0 0
16 16 16 16 16 13 19 26 32 39 39 42 42 48 48 45 45 48 48 48 45 39 35 39 35 35 32 29 26 19 16 13 13 19 16 13 10 6 6 0 0 0 0 0
10 16 13 16 19 19 23 26 35 39 42 42 42 35 42 45 45 45 42 39 39 35 35 35 35 32 26 23 19 16 16 13 13 10 13 10 10 10 10 3 3 0 0 0
10 6 16 16 19 19 23 32 32 35 39 39 32 35 39 39 39 39 32 35 32 32 32 32 35 32 23 23 19 16 16 10 10 6 10 6 6 6 3 6 6 3 3 3
6 10 10 16 19 23 26 23 29 26 26 26 26 26 32 35 35 26 23 19 26 32 32 32 26 23 23 23 19 16 13 10 3 6 6 6 6 6 6 3 3 3 6 3
6 6 10 10 13 19 23 23 26 26 26 23 23 23 26 29 29 29 23 19 29 26 26 29 26 19 19 19 23 19 16 13 10 6 6 3 3 6 6 3 3 3 6 3
6 6 6 3 6 13 23 23 19 19 19 23 23 26 23 26 26 26 19 23 23 29 23 19 6 10 19 19 13 19 13 10 6 6 6 3 3 3 6 3 3 3 3 6
3 3 3 3 6 10 13 16 16 19 16 16 16 23 26 26 19 16 16 23 26 23 23 16 16 19 19 13 3 6 6 10 6 3 6 6 6 6 3 0 3 3 3 3
3 3 3 6 6 6 6 10 10 13 13 16 19 19 23 16 16 16 19 16 26 23 16 3 13 13 13 10 3 6 6 3 6 3 3 3 6 6 6 0 0 0 3 0
3 10 10 6 6 10 10 6 10 13 13 13 16 19 13 16 16 16 16 23 23 16 16 13 13 13 6 3 6 10 6 6 6 6 6 3 3 6 3 3 3 3 3 3
6 3 3 0 3 3 3 10 10 13 13 13 16 16 13 16 16 16 16 16 23 6 13 16 6 0 0 3 6 10 10 6 6 6 3 0 0 3 6 3 3 3 3 3
3 6 3 3 3 3 6 10 10 10 10 10 10 13 19 16 19 19 13 3 6 6 13 6 0 0 3 10 10 6 3 3 3 0 0 3 3 3 3 3 3 3 3 0
10 3 3 3 3 0 3 3 6 10 6 6 6 6 16 16 19 13 13 10 6 3 10 3 0 0 3 10 6 6 3 0 0 0 3 3 3 3 3 6 3 6 6 3
6 3 3 3 3 3 3 3 3 6 3 6 3 13 13 16 13 16 16 10 6 6 6 6 0 0 3 3 0 3 3 0 0 0 0 3 3 3 3 6 0 3 0 0
6 6 3 3 3 3 3 3 3 3 3 3 10 10 16 13 16 13 13 10 6 6 6 3 0 0 3 3 0 0 0 0 0 0 0 3 6 6 3 3 0 0 0 0

GEFSNGP_con_cape1000_216.txt.gz
Probability
0 0 0 0 0 0 0 0 3 6 6 16 19 23 32 39 39 58 65 68 87 90 94 90 87 84 81 71 71 74 77 74 71 71 74 71 71 61 58 58 45 48 42 39
0 0 0 0 0 0 0 0 3 6 6 16 26 35 48 52 45 55 71 77 81 87 87 90 87 87 81 74 71 71 71 71 68 68 65 61 58 55 52 48 42 45 42 42
0 0 0 0 0 0 0 3 3 10 16 26 42 52 55 65 65 71 61 77 84 87 87 90 84 84 81 74 71 71 71 71 68 68 61 58 42 45 42 39 32 42 39 39
0 0 0 0 0 0 3 3 19 16 26 39 42 61 68 71 77 71 71 71 87 84 84 84 84 84 84 71 71 71 71 71 71 68 55 55 52 48 42 39 29 35 35 35
0 0 0 0 0 3 3 6 16 29 39 42 42 48 48 52 55 68 65 71 77 84 84 87 87 87 84 68 68 68 68 68 65 61 55 55 48 42 45 35 32 29 29 32
0 0 0 0 0 3 6 19 16 29 45 45 48 48 48 58 61 61 65 65 68 71 81 87 87 87 84 77 71 71 71 71 65 65 65 58 48 45 39 35 32 32 29 26
0 3 0 3 3 3 6 29 29 35 39 48 48 48 45 58 61 68 71 68 71 74 74 84 87 84 81 74 71 68 68 65 61 61 58 55 48 48 45 32 29 32 29 26
0 0 0 10 13 16 42 45 35 42 39 42 42 45 48 55 65 65 68 65 65 77 77 84 87 84 81 74 74 68 65 65 61 58 52 48 52 48 42 35 35 32 29 29
23 23 32 23 29 42 42 42 29 35 26 29 39 39 52 55 65 65 61 65 65 77 81 84 87 84 81 77 74 74 65 65 61 58 48 45 48 42 35 35 26 23 23 19
32 26 16 19 26 19 26 26 23 26 26 26 35 42 45 55 61 58 61 61 65 68 71 84 87 81 81 77 74 68 58 55 55 45 45 45 42 32 29 26 26 26 23 23
26 29 19 19 19 19 16 13 16 23 26 32 39 45 48 55 61 52 52 55 58 68 71 77 81 74 68 65 65 61 58 55 52 39 39 35 32 32 23 19 16 13 19 13
26 26 26 26 26 23 13 16 19 19 19 23 29 42 42 42 52 55 52 52 48 52 58 58 68 65 61 58 61 58 55 48 39 35 35 32 32 26 3 3 3 3 6 6
13 16 26 23 23 23 19 19 19 23 23 23 32 35 45 48 48 48 48 45 48 48 52 55 61 58 52 55 48 45 45 42 29 23 29 29 32 26 19 3 0 0 0 0
10 13 23 23 16 19 23 23 26 23 26 26 32 39 45 48 45 42 42 45 48 48 52 52 55 55 48 45 45 39 39 26 29 23 23 26 26 23 23 16 13 6 3 0
6 6 10 10 13 19 29 29 26 26 26 26 35 35 39 39 42 42 39 45 42 45 42 42 48 48 48 45 45 42 32 29 29 23 23 19 23 16 13 19 19 16 6 3
6 6 6 10 10 23 19 19 23 23 23 26 29 35 35 35 39 35 35 39 42 39 48 45 45 48 45 42 45 35 32 16 16 23 16 16 16 13 16 10 10 10 10 13
6 6 6 13 16 19 19 16 16 19 26 26 29 35 35 29 32 32 35 29 39 42 45 45 39 42 42 42 32 26 26 16 10 10 16 16 13 13 13 6 6 6 10 6
0 3 6 16 16 19 19 16 13 16 16 23 26 29 29 29 26 29 29 23 29 39 42 42 45 39 35 29 32 23 19 16 10 10 13 13 16 16 13 6 6 6 6 0
0 3 3 10 6 16 13 16 19 16 19 26 26 26 26 23 23 29 29 26 32 32 45 45 26 32 26 26 13 23 16 16 13 13 13 10 10 10 10 10 6 6 6 3
0 3 6 6 6 6 6 10 13 13 16 23 23 23 26 23 23 26 35 32 32 35 39 35 29 35 26 19 13 13 13 13 13 10 10 10 6 6 6 6 6 6 6 6
3 6 6 6 6 6 10 10 10 13 13 19 19 23 23 26 26 26 26 19 35 42 39 13 26 32 26 16 10 13 13 13 13 13 6 3 3 3 3 6 10 6 6 10
6 6 6 6 3 3 6 6 3 10 13 13 16 19 23 26 26 23 29 29 29 16 23 19 23 16 19 10 10 10 13 13 13 10 10 10 6 6 6 6 3 6 10 10
10 6 10 6 10 6 10 0 3 10 13 16 16 16 19 23 19 10 10 19 26 13 16 16 13 6 6 10 10 10 13 13 13 10 10 10 10 3 3 3 3 6 6 3
13 13 13 13 13 13 6 6 6 10 16 16 16 16 19 23 13 13 13 3 10 16 16 10 6 3 3 13 13 10 13 13 13 10 6 3 0 0 0 0 0 3 3 3
6 13 13 10 10 13 10 6 6 10 13 16 16 16 10 13 16 13 13 10 6 10 13 3 3 3 3 10 13 13 13 13 13 10 10 6 0 0 0 0 0 0 3 3
10 10 6 10 10 10 3 0 0 3 0 0 6 6 6 10 10 10 13 10 13 13 13 6 6 3 6 10 13 13 10 10 10 10 10 10 6 3 3 3 3 0 3 3
6 6 6 6 6 3 3 0 3 0 0 0 0 0 6 10 10 6 6 10 13 13 13 13 6 6 10 13 13 10 10 10 10 10 10 6 6 6 3 0 0 0 0 0

GEFSNGP_con_cape1000_222.txt.gz
Probability
0 0 0 0 0 0 0 0 3 3 6 10 6 10 6 16 26 35 39 29 26 32 29 35 35 45 55 58 65 58 55 55 55 48 39 32 35 26 23 23 23 19 19 16
0 0 0 0 3 3 3 6 6 6 10 6 6 16 26 29 39 42 42 48 48 35 35 39 39 39 55 58 55 52 58 58 55 52 39 29 32 32 26 26 23 19 19 19
0 0 0 3 3 3 6 6 6 19 26 26 29 26 23 23 29 48 52 55 55 45 48 45 45 39 52 52 55 52 55 58 58 52 42 32 32 32 29 29 26 23 19 19
0 0 0 0 0 6 10 13 16 23 29 32 23 26 19 16 26 35 42 45 52 58 58 52 45 42 42 52 52 52 52 55 55 48 39 39 32 32 29 29 29 29 26 19
0 0 3 0 0 3 13 19 19 26 26 29 29 23 26 26 29 35 35 39 52 61 65 55 48 45 45 52 52 52 45 45 52 52 39 35 35 32 29 29 26 29 19 16
0 0 0 0 3 6 10 19 19 16 19 26 23 26 23 32 32 29 32 39 42 55 52 48 52 48 48 52 52 48 45 45 45 35 39 35 35 29 26 26 23 23 19 19
0 0 0 3 13 6 10 16 16 16 16 19 23 26 23 29 26 32 29 39 45 55 48 48 45 45 45 52 48 52 45 48 45 42 35 32 32 26 26 26 23 23 19 16
0 0 0 0 16 16 10 13 10 16 19 26 29 32 29 29 29 32 35 42 48 45 48 42 39 35 39 42 42 42 48 52 48 42 39 35 32 26 26 23 23 23 16 16
0 0 0 3 6 10 6 13 10 19 19 23 23 26 32 29 29 32 35 39 42 42 42 39 39 35 35 39 39 39 45 42 39 35 35 35 35 26 23 23 19 16 13 10
3 3 0 0 0 0 3 6 10 10 16 19 19 29 29 29 26 29 32 35 42 42 39 39 35 32 29 35 32 39 39 35 32 29 26 26 19 19 19 16 13 10 10 13
6 0 0 0 0 0 3 10 6 10 13 10 13 16 23 26 23 29 32 32 35 35 35 32 32 29 26 23 26 35 32 32 26 19 19 19 16 13 13 6 6 6 6 6
0 0 0 0 0 0 6 6 6 13 13 13 13 10 10 16 23 26 29 29 23 26 32 39 32 26 26 23 29 32 32 29 16 19 19 16 10 6 0 3 3 6 6 3
0 3 0 0 0 0 0 10 13 13 10 10 10 10 16 23 23 23 23 23 16 19 26 32 29 26 29 26 26 29 29 26 16 23 19 16 10 10 3 0 0 0 0 0
0 3 3 0 0 0 3 6 6 13 13 10 13 13 19 16 19 19 16 19 16 19 29 32 26 29 29 26 23 26 23 16 16 16 16 16 10 10 10 3 0 0 0 0
3 6 6 6 3 3 6 10 6 10 13 13 13 10 13 16 16 16 16 19 19 26 26 29 26 29 29 23 19 26 26 19 19 19 19 13 13 10 10 6 3 0 0 0
0 6 6 6 6 6 6 6 10 10 10 13 10 10 10 16 16 16 19 16 16 26 26 19 26 26 26 23 23 26 26 23 19 19 16 13 13 10 10 10 6 0 0 0
0 0 6 6 6 6 6 6 6 6 6 10 10 10 10 13 13 19 10 10 13 16 19 16 23 23 23 23 16 23 26 16 16 13 10 10 10 10 10 10 6 3 0 0
0 0 0 3 6 6 6 6 6 6 6 10 13 10 13 16 16 13 13 10 10 13 13 16 19 19 23 23 16 19 16 13 10 10 10 10 10 10 10 10 10 3 0 0
0 0 0 3 3 3 6 6 6 6 6 10 13 13 13 10 13 13 13 10 13 13 10 10 13 13 13 13 16 10 13 13 10 10 10 10 10 10 10 6 0 0 0 0
0 0 0 3 3 3 3 6 6 6 6 6 10 10 10 13 13 13 13 10 10 10 10 13 6 10 10 13 6 6 10 10 10 10 10 10 10 3 3 3 3 0 0 0
0 0 0 3 0 0 0 0 0 3 3 3 6 6 6 10 10 6 10 10 10 13 10 10 10 10 10 13 3 6 6 6 6 6 6 10 6 3 3 3 3 0 0 0
0 0 0 3 0 0 0 0 0 0 0 0 3 6 10 10 10 3 3 10 6 10 10 10 10 10 10 10 6 6 6 10 10 6 3 3 3 3 0 0 0 0 0 0
0 0 0 0 0 0 0 0 0 0 0 0 0 0 6 6 6 3 3 3 6 10 10 10 6 6 6 6 6 6 6 6 3 6 6 3 3 3 0 0 0 0 0 0
0 0 0 0 0 0 0 0 0 0 0 0 0 0 0 6 6 6 6 6 3 3 6 3 3 3 3 6 6 3 3 3 3 6 6 6 6 3 3 3 0 0 0 0
0 0 0 0 0 0 0 0 0 0 0 0 0 0 0 0 6 6 6 3 3 3 3 3 3 3 6 6 3 3 3 3 3 3 6 6 6 6 6 3 0 0 0 0
0 0 0 0 0 0 0 0 0 0 0 0 0 0 0 0 3 6 6 6 3 3 3 3 3 0 3 3 3 3 3 3 3 3 3 3 3 3 3 3 0 0 0 0
0 0 0 0 0 0 0 0 0 0 0 0 0 0 0 0 0 0 0 6 3 0 0 0 0 0 0 0 3 3 3 0 0 0 0 0 0 0 0 0 0 0 0 0